Power by www.initrio-led.comwww.initrio-led.comwww.initrio-led.comwww.initrio-led.comwww.initrio-led.com

HONDA HRV CLUB - ศูนย์กลางสถิติ

สถิติทั่วไป

จำนวนสมาชิกทั้งหมด:
480
จำนวนตอบกระทู้ทั้งหมด:
193326
จำนวนหัวข้อทั้งหมด:
163898
จำนวนหมวดหมู่ทั้งหมด:
14
ผู้ใช้งานที่ออนไลน์:
100
ออนไลน์มากที่สุด:
263 - 1 พ.ย. 2017, 08:38:26 น.
ออนไลน์วันนี้:
114
เพจวิวทั้งหมด:
4979890
สมาชิกเฉลี่ยต่อวัน:
0.93
ตอบกระทู้เฉลี่ยต่อวัน:
170.54
หัวข้อเฉลี่ยต่อวัน:
143.66
จำนวนบอร์ดทั้งหมด:
30
สมาชิกล่าสุด:
takydeS9T
ออนไลน์เฉลี่ยต่อวัน:
50.47
อัตราส่วนระหว่างชายกับหญิง:
2.3:1
เฉลี่ยเพจวิวต่อวัน:
4364.50

หัวข้อยอดนิยม 10 หัวข้อแรก (ผู้ตอบสูงสุด)

[[ ขาย ]] จำหน่ายถาดท้ายรถยนต์ HONDA HRV และผ้ายางเข้ารูป ราคาโรงงาน !!!!!!
1591
[รับซื้อรถมือสอง]ราคาสูงที่สุด ทุกรุ่นทุกยี่ห้อ คุยง่ายพร้อมบริการถึงที่ครับ
944
!!!! แรงสุดทั่วราชอาณาจักร ดูแคมเปญสุดเล้าใจพร้อมดาวน์โหลดโปรชัวร์ได้ที่นี้ !!!!
631
!!! รับซื้อ รถ สด แรง เร็ว IN AND OUT car ซื้อทุกรุ่น ทุกยี่ห้อ พร้อมโปรโมชั่นรถ
612
สีแต้มรถ HONDA HRV ขวดละ 170.- (imixpaint) และอุปกรณ์งานแต้มสีรถ
541
พรมปูพื้นรถยนต์เข้ารูป ผ้ายางปูพื้นรถ ถาดท้าย พรม5D คิ้วกันสาดเข้ารูปเพียง600-!!
456
ขายผ้าคลุมรถHRV กันน้ำ กันแดดคุณภาพเยี่ยม [รับสั่งตัดงานพิเศษ ทุกแบบ] พร้อมส่ง
440
ล้อป้ายแดง Hrv 17 พร้อมยาง
432
"พรมกระดุม พรมดักฝุ่น สูตรดั้งเดิม ทนมากกกก Mr.CARPET"
432
***Saw Palmetto สำหรับชาว HR-V ที่มีปัญหาผมร่วงผมบาง ไม่ส่งผลต่อสมรรถภาพทางเพศ**
387

หัวข้อยอดนิยม 10 หัวข้อแรก (ผู้อ่านสูงสุด)

[[ ขาย ]] จำหน่ายถาดท้ายรถยนต์ HONDA HRV และผ้ายางเข้ารูป ราคาโรงงาน !!!!!!
30339
พรมปูพื้นรถยนต์เข้ารูป ผ้ายางปูพื้นรถ ถาดท้าย พรม5D คิ้วกันสาดเข้ารูปเพียง600-!!
12880
ของแต่ง HR-V มาแว้ว คลิกเลย!!!!!!!!!!!!!! ราคากันเอง ฟรีติดตั้ัง
12440
ล้อ ยาง max ใหม่หรือป้ายแดง HONDA HRV หลายชุด ขายถูก ติดตั้งหรือส่งทั่วไทยคร้าบ
9488
[รับซื้อรถมือสอง]ราคาสูงที่สุด ทุกรุ่นทุกยี่ห้อ คุยง่ายพร้อมบริการถึงที่ครับ
9268
!!!! แรงสุดทั่วราชอาณาจักร ดูแคมเปญสุดเล้าใจพร้อมดาวน์โหลดโปรชัวร์ได้ที่นี้ !!!!
8457
"พรมกระดุม พรมดักฝุ่น สูตรดั้งเดิม ทนมากกกก Mr.CARPET"
8307
!!! รับซื้อ รถ สด แรง เร็ว IN AND OUT car ซื้อทุกรุ่น ทุกยี่ห้อ พร้อมโปรโมชั่นรถ
7493
ขายผ้าคลุมรถHRV กันน้ำ กันแดดคุณภาพเยี่ยม [รับสั่งตัดงานพิเศษ ทุกแบบ] พร้อมส่ง
7280
ล้างเเอร์รถยนต์ 500 บาท ซอยหลวงพ่อโต บางพลี พร้อมบริการ ซ่อมเเอร์ ขัดไฟหน้า เเบต
6407

เริ่มหัวข้อใหม่มากที่สุด

ออนไลน์นานที่สุด

montien
1วัน 10ชั่วโมง 28นาที
aircardok
1วัน 7ชั่วโมง 50นาที
้hairman
1วัน 5ชั่วโมง 36นาที
MEE-GUSTO
1วัน 23นาที
Teetawat
22ชั่วโมง 15นาที
salestray
19ชั่วโมง 48นาที
mr_carpet
17ชั่วโมง 56นาที
pengeng
16ชั่วโมง 55นาที
ostylegolfzz
15ชั่วโมง 50นาที
lekcar88
14ชั่วโมง 37นาที

รายละเอียดระบบย้อนหลัง

สรุปประจำเดือน หัวข้อใหม่ ตอบกระทู้ใหม่ สมาชิกใหม่ ออนไลน์มากที่สุด เพจวิว
* 2018 80595 93477 203 232 2426816
พฤษภาคม 2018 13187 15170 19 204 409301
เมษายน 2018 17848 20631 45 209 566747
มีนาคม 2018 18137 20841 54 198 528713
กุมภาพันธ์ 2018 15830 18384 36 232 442874
มกราคม 2018 15593 18451 49 200 479181
* 2017 83030 94959 188 263 2330439
ธันวาคม 2017 21075 23350 21 195 569151
พฤศจิกายน 2017 20293 22242 20 263 530288
ตุลาคม 2017 17994 19931 16 195 473501
กันยายน 2017 16631 18357 22 160 414879
สิงหาคม 2017 6944 7765 34 86 177610
กรกฎาคม 2017 20 472 20 24 11154
มิถุนายน 2017 13 489 10 21 19526
พฤษภาคม 2017 6 227 0 19 8523
2017-05-11 1 6 0 11 593
2017-05-12 1 8 0 9 548
2017-05-13 0 4 0 12 1174
2017-05-14 0 7 0 13 181
2017-05-15 0 5 0 13 474
2017-05-16 0 12 0 13 343
2017-05-17 0 10 0 13 1307
2017-05-18 0 8 0 14 240
2017-05-19 1 11 0 10 170
2017-05-20 0 8 0 15 364
2017-05-21 0 20 0 15 213
2017-05-22 0 13 0 16 818
2017-05-23 1 10 0 9 612
2017-05-24 0 8 0 18 183
2017-05-25 0 9 0 13 214
2017-05-26 0 10 0 12 162
2017-05-27 1 10 0 11 113
2017-05-28 0 8 0 18 192
2017-05-29 1 16 0 19 199
2017-05-30 0 22 0 14 195
2017-05-31 0 22 0 13 228
เมษายน 2017 11 223 5 109 13439
มีนาคม 2017 15 719 10 74 42902
กุมภาพันธ์ 2017 12 574 18 95 27236
มกราคม 2017 16 610 12 92 42230
2017-01-01 0 19 1 56 820
2017-01-02 0 9 0 17 1365
2017-01-03 2 14 1 19 296
2017-01-04 0 20 0 52 1093
2017-01-05 0 21 0 67 983
2017-01-06 1 14 2 59 739
2017-01-07 0 28 0 55 7849
2017-01-08 1 21 0 47 968
2017-01-09 0 14 0 52 7624
2017-01-10 0 20 0 54 847
2017-01-11 0 17 0 56 744
2017-01-12 2 19 0 48 1760
2017-01-13 0 27 0 43 608
2017-01-14 0 26 5 53 657
2017-01-15 1 21 0 47 756
2017-01-16 0 20 1 51 753
2017-01-17 1 16 1 45 632
2017-01-18 0 19 0 53 1088
2017-01-19 1 19 0 51 981
2017-01-20 0 18 0 42 1445
2017-01-21 1 20 0 41 706
2017-01-22 0 19 0 49 726
2017-01-23 1 22 0 50 743
2017-01-24 1 22 0 57 1134
2017-01-25 0 25 0 68 1161
2017-01-26 2 22 1 92 1088
2017-01-27 0 18 0 43 1127
2017-01-28 0 26 0 29 1742
2017-01-29 1 19 0 40 494
2017-01-30 0 14 0 45 841
2017-01-31 1 21 0 46 460
* 2016 254 5653 534 175 198775
ธันวาคม 2016 7 629 6 56 19786
พฤศจิกายน 2016 13 568 10 52 24760
ตุลาคม 2016 13 601 11 69 20621
2016-10-01 1 18 1 45 738
2016-10-02 0 17 0 55 445
2016-10-03 0 21 0 36 548
2016-10-04 0 20 0 29 1459
2016-10-05 0 14 0 28 682
2016-10-06 1 21 1 28 442
2016-10-07 1 18 0 34 370
2016-10-08 0 16 0 48 609
2016-10-09 1 17 1 53 588
2016-10-10 0 23 0 44 876
2016-10-11 1 18 2 36 540
2016-10-12 0 18 0 45 766
2016-10-13 0 20 0 35 451
2016-10-14 3 16 0 43 511
2016-10-15 0 17 0 38 655
2016-10-16 0 17 1 53 631
2016-10-17 1 23 1 37 791
2016-10-18 0 23 1 38 412
2016-10-19 2 20 1 48 684
2016-10-20 0 21 0 42 532
2016-10-21 0 20 0 33 457
2016-10-22 0 12 0 26 353
2016-10-23 1 16 1 14 659
2016-10-24 0 15 0 26 289
2016-10-25 0 19 0 69 713
2016-10-26 0 34 0 51 886
2016-10-27 0 28 0 54 630
2016-10-28 0 30 0 54 676
2016-10-29 0 23 0 50 802
2016-10-30 0 9 0 50 1595
2016-10-31 1 17 1 48 831
กันยายน 2016 9 690 14 54 20567
สิงหาคม 2016 48 673 21 50 21743
กรกฎาคม 2016 72 591 225 175 38662
มิถุนายน 2016 7 441 43 32 13927
พฤษภาคม 2016 65 449 46 26 11172
เมษายน 2016 5 264 48 19 7599
มีนาคม 2016 1 269 35 27 7042
กุมภาพันธ์ 2016 6 268 35 29 7327
2016-02-01 0 8 0 21 231
2016-02-02 2 15 4 18 620
2016-02-03 1 11 1 17 304
2016-02-04 0 9 0 17 246
2016-02-05 1 12 1 12 263
2016-02-06 0 8 1 21 271
2016-02-07 1 9 1 15 247
2016-02-08 0 13 1 17 449
2016-02-09 0 12 3 29 674
2016-02-10 0 11 3 24 329
2016-02-11 0 10 2 19 184
2016-02-12 0 9 2 18 228
2016-02-13 0 9 0 7 149
2016-02-14 0 10 0 13 151
2016-02-15 0 6 2 12 127
2016-02-16 1 9 1 14 195
2016-02-17 0 10 1 15 220
2016-02-18 0 7 2 13 160
2016-02-19 0 9 1 11 173
2016-02-20 0 10 1 15 228
2016-02-21 0 8 1 12 205
2016-02-22 0 5 2 19 173
2016-02-23 0 6 1 12 164
2016-02-24 0 7 0 14 171
2016-02-25 0 11 0 20 187
2016-02-26 0 6 0 12 174
2016-02-27 0 9 3 16 308
2016-02-28 0 10 0 12 289
2016-02-29 0 9 1 14 207
มกราคม 2016 8 210 40 18 5569
2016-01-01 0 1 0 6 84
2016-01-02 0 1 0 7 127
2016-01-03 1 8 2 9 147
2016-01-04 0 5 1 15 177
2016-01-05 0 7 0 13 167
2016-01-06 1 7 2 9 155
2016-01-07 0 5 2 11 139
2016-01-08 0 7 4 11 170
2016-01-09 0 6 0 9 139
2016-01-10 0 6 0 12 133
2016-01-11 0 4 0 12 200
2016-01-12 0 7 0 15 229
2016-01-13 0 6 2 17 201
2016-01-14 1 9 2 14 199
2016-01-15 0 6 0 10 119
2016-01-16 0 5 0 13 166
2016-01-17 0 4 2 11 153
2016-01-18 0 7 1 16 135
2016-01-19 0 8 5 14 243
2016-01-20 0 6 2 11 137
2016-01-21 1 7 2 16 203
2016-01-22 0 8 0 13 138
2016-01-23 0 6 3 13 188
2016-01-24 1 9 1 14 257
2016-01-25 2 10 3 17 246
2016-01-26 0 12 1 13 215
2016-01-27 1 9 3 17 253
2016-01-28 0 9 1 12 177
2016-01-29 0 10 0 18 244
2016-01-30 0 8 0 13 192
2016-01-31 0 7 1 13 236
* 2015 35 492 137 43 23860
ธันวาคม 2015 3 149 26 19 5083
พฤศจิกายน 2015 3 107 12 43 3970
ตุลาคม 2015 3 34 13 12 2397
กันยายน 2015 2 33 18 12 1923
สิงหาคม 2015 1 35 13 10 1436
กรกฎาคม 2015 1 33 7 9 1695
มิถุนายน 2015 2 38 12 10 1943
พฤษภาคม 2015 1 30 21 10 1886
เมษายน 2015 19 33 15 12 3527
2015-04-06 1 1 3 2 0
2015-04-07 0 1 0 2 0
2015-04-08 4 4 0 2 0
2015-04-09 4 6 0 2 0
2015-04-10 2 4 0 2 0
2015-04-11 3 3 4 3 160
2015-04-12 2 6 2 7 212
2015-04-13 1 1 1 4 1136
2015-04-14 0 1 1 7 663
2015-04-15 0 0 0 4 12
2015-04-16 0 0 0 4 59
2015-04-17 0 0 1 9 199
2015-04-18 0 0 0 10 178
2015-04-19 0 0 0 12 76
2015-04-20 0 0 0 6 83
2015-04-21 0 0 0 7 95
2015-04-22 0 0 0 8 88
2015-04-23 0 0 0 8 66
2015-04-24 1 1 1 7 97
2015-04-25 0 0 1 6 98
2015-04-26 0 0 0 5 32
2015-04-27 0 1 1 8 155
2015-04-28 0 1 0 4 51
2015-04-29 1 2 0 3 35
2015-04-30 0 1 0 5 32

TOP